RH
95 97 98 97 97 97 97 97 94 99 97 94 44 38 45 36 34 33 30 31 31 35 41 44 48 52 53 51 54 57 61 63 63 76 67 59 61 64 64 59 62 66 55 52 46 50 50
96 98 97 96 97 97 97 97 91 91 95 90 83 34 31 32 31 31 30 29 30 33 37 42 46 51 50 54 51 57 61 63 67 73 67 66 64 68 72 72 76 66 58 57 54 51 49
96 98 97 97 97 96 96 89 79 83 82 85 53 37 34 38 39 36 31 28 29 31 37 41 45 51 46 45 49 56 61 66 70 74 60 72 68 65 73 72 65 65 70 52 53 52 50
100 99 98 97 95 88 92 79 67 76 83 72 60 29 36 38 39 35 32 28 29 30 38 39 45 52 44 42 46 53 59 69 68 70 70 75 76 61 63 59 62 70 69 71 48 49 49
96 98 98 97 98 87 88 69 56 48 49 53 51 32 37 38 36 35 32 29 29 35 39 43 48 48 38 38 46 48 55 60 70 69 72 68 64 62 61 69 68 66 76 81 71 51 50
99 98 99 100 97 96 84 74 60 57 44 39 37 35 39 38 35 34 32 29 32 36 42 43 42 41 34 35 44 47 57 66 62 64 63 62 61 71 70 66 62 88 95 86 96 53 57
100 99 98 100 100 90 86 66 57 58 46 35 34 36 40 40 34 33 33 34 29 29 34 30 34 38 36 41 43 50 55 60 57 59 58 59 68 54 57 56 62 71 63 59 50 46 57
100 99 99 99 98 97 72 62 58 54 53 35 36 35 41 39 38 37 35 31 38 40 30 40 44 44 45 47 42 39 55 47 52 56 52 53 58 40 47 56 65 64 64 64 49 53 55
94 99 98 98 100 88 65 70 60 54 51 37 39 35 43 40 43 33 39 51 49 48 35 32 38 37 37 42 41 40 42 44 50 51 46 58 40 44 54 55 64 52 53 54 55 59 60
97 100 98 98 99 92 69 70 68 59 48 41 40 37 44 41 42 44 49 48 52 43 50 28 31 36 38 41 40 37 43 42 44 44 45 46 40 46 45 44 46 41 36 40 44 65 60
99 96 99 94 90 78 72 73 71 66 58 41 41 40 45 38 43 53 51 45 50 44 80 27 31 34 37 41 38 36 44 41 45 41 44 38 40 42 44 43 47 43 43 42 43 54 59
94 88 93 90 90 76 70 69 70 67 60 47 39 43 41 45 38 46 43 46 48 70 70 34 36 42 39 37 34 35 39 38 41 45 42 39 40 46 43 42 47 43 41 42 44 45 60
78 78 78 80 81 78 73 71 71 69 61 47 39 44 45 45 48 42 46 52 69 76 32 30 39 45 48 43 37 40 42 37 46 78 56 38 35 37 46 39 36 35 39 63 54 57 42
78 76 73 76 74 78 78 70 71 73 70 55 41 48 50 49 47 51 52 40 57 30 27 40 48 47 43 40 38 40 40 36 50 49 53 64 54 33 41 38 36 42 41 55 53 43 38
87 82 78 77 76 71 69 71 72 75 75 59 44 57 61 53 57 57 48 68 65 28 37 43 40 38 34 37 38 39 40 40 41 47 47 49 34 33 44 44 46 41 44 37 46 53 59
96 93 87 83 81 76 74 70 68 72 75 72 48 61 66 58 57 52 49 53 33 38 47 52 35 41 34 33 35 35 38 37 43 47 48 47 50 35 38 42 46 41 39 46 46 51 41
100 96 96 93 89 85 79 75 69 73 71 58 62 56 65 58 59 46 65 44 40 44 46 47 42 38 38 38 37 32 36 38 46 46 51 50 49 31 36 36 39 36 38 41 44 48 45
99 100 99 96 97 93 86 80 75 77 73 58 56 62 65 62 54 55 42 40 44 52 53 52 52 42 39 37 37 34 36 35 44 44 42 45 44 47 27 40 44 42 37 38 35 34 40
97 95 99 100 98 99 97 85 79 77 85 71 57 59 68 62 58 50 42 46 50 52 53 55 55 54 46 41 38 37 36 39 50 46 36 39 32 38 26 38 45 44 36 41 41 42 36
96 97 91 80 92 100 99 98 82 77 86 82 59 71 59 62 55 37 38 40 44 54 48 51 48 49 51 47 41 42 37 40 54 46 49 41 34 29 28 23 34 34 37 42 39 44 26
99 100 98 93 80 84 100 95 92 82 87 88 63 63 56 55 51 48 42 40 43 43 54 50 47 48 44 43 43 45 42 37 53 54 53 44 49 48 37 34 36 41 40 37 42 32 27
99 100 100 99 98 81 87 100 98 86 88 95 63 57 64 50 48 51 52 46 45 41 46 50 51 40 44 42 33 32 37 40 37 58 54 52 51 53 51 44 46 48 41 41 40 39 41
94 98 99 99 100 98 94 90 100 97 86 93 79 67 50 52 53 49 46 43 45 41 40 39 43 43 49 43 37 34 34 39 39 43 50 53 54 55 50 45 46 40 31 46 42 38 36
92 91 94 99 100 100 98 94 100 100 90 88 78 64 52 55 50 49 47 47 46 46 39 44 44 44 45 48 49 50 52 54 54 51 47 56 54 58 66 51 55 35 39 39 40 37 34
89 84 90 94 98 99 100 98 79 100 100 97 85 69 54 51 47 48 50 48 45 44 49 46 48 42 47 46 47 41 42 54 63 66 62 54 52 58 69 59 39 36 39 38 37 35 33
97 98 97 99 100 100 100 97 73 76 100 100 96 84 63 53 47 40 47 48 47 48 49 52 61 57 51 52 48 46 45 39 53 73 68 65 59 59 66 68 46 34 34 34 35 36 36
91 94 89 89 100 100 94 99 79 69 99 100 98 89 78 76 50 43 45 47 45 47 46 58 66 65 56 58 54 53 48 46 48 60 81 76 72 75 70 69 46 35 38 35 41 42 39
94 95 93 90 99 100 95 95 86 69 96 100 95 88 87 81 59 50 43 49 52 48 46 57 56 62 67 62 55 49 51 46 50 47 63 64 70 75 79 94 86 38 35 44 39 41 41
98 100 88 86 99 100 98 100 99 90 92 100 95 95 86 83 71 62 50 40 40 41 42 60 50 58 54 60 59 55 58 60 53 52 53 57 51 69 70 64 47 41 39 39 42 46 47
Wind_Speed
8 9 9 10 10 11 12 12 11 11 11 10 6 4 5 6 7 7 6 7 8 9 8 8 10 10 4 3 3 7 9 8 5 2 2 3 2 4 4 4 4 9 9 10 14 12 12
8 9 9 10 10 11 12 13 13 12 13 11 9 4 4 5 7 8 8 8 8 8 7 7 8 8 1 6 6 6 6 6 5 3 3 2 2 3 2 2 8 7 8 9 8 15 12
9 9 9 10 11 12 13 14 15 15 15 15 11 5 4 6 7 8 9 8 8 8 9 5 6 5 2 4 3 5 5 4 5 3 4 1 1 3 1 4 5 9 12 12 14 16 14
9 10 10 11 11 12 14 15 16 17 18 19 15 6 4 8 8 7 7 7 7 8 6 3 4 3 3 3 5 3 3 2 3 2 1 2 3 1 3 3 5 5 5 6 5 9 8
9 11 11 12 12 12 14 15 17 18 19 21 17 8 6 8 8 6 4 4 5 5 3 1 0 2 2 4 2 4 2 3 2 2 2 2 3 2 4 5 4 5 6 6 9 5 7
10 11 12 13 13 14 15 16 18 19 20 23 18 8 9 8 7 4 1 2 3 3 1 1 0 2 2 4 5 4 3 2 2 4 2 3 3 3 4 5 3 1 3 3 7 5 9
11 12 12 13 15 14 16 16 18 20 21 23 19 9 10 9 6 2 1 0 2 2 1 2 1 2 5 9 4 3 2 2 2 2 3 2 6 6 7 4 5 3 7 10 9 6 8
12 11 12 13 14 15 16 17 19 20 23 24 18 9 10 7 5 3 2 2 2 1 2 2 2 4 4 2 3 2 1 4 2 5 3 3 7 8 7 8 8 7 7 5 5 2 5
11 12 13 14 14 15 16 17 19 20 23 25 18 8 9 5 3 4 5 3 2 1 2 1 2 3 3 2 3 3 1 2 4 4 5 5 7 7 5 7 9 10 12 4 2 5 2
11 12 13 14 15 15 16 17 19 20 23 27 18 8 7 4 2 2 2 1 1 1 2 1 1 0 1 1 3 2 2 2 3 6 6 6 3 6 9 8 6 7 7 7 8 3 2
11 12 13 13 14 15 16 17 19 21 23 25 17 8 6 6 1 1 1 1 0 1 1 1 1 1 2 3 6 2 0 2 6 7 4 3 4 8 7 5 7 6 10 6 5 7 4
10 12 12 13 15 15 16 16 18 20 22 24 15 8 6 3 2 2 2 2 1 1 3 2 2 3 4 1 1 5 1 1 2 5 5 7 2 2 3 6 3 8 7 6 3 4 2
14 15 15 16 15 16 16 16 18 19 21 22 14 6 7 3 2 2 2 1 1 1 1 3 3 3 4 3 3 3 4 4 4 6 4 6 2 2 4 3 4 3 6 3 2 2 3
15 15 16 17 18 18 18 17 17 19 20 21 14 5 3 3 2 0 1 2 1 2 3 1 1 5 3 4 1 3 4 2 1 2 4 4 3 2 2 4 5 1 1 1 4 4 5
18 17 16 17 17 18 19 17 16 18 20 21 12 5 3 1 1 1 2 1 4 4 1 2 2 3 1 0 3 4 1 2 1 1 4 4 4 1 1 1 3 3 2 4 3 1 3
22 20 19 19 18 18 17 18 16 17 18 23 9 2 1 1 2 2 0 3 2 2 3 2 2 1 3 2 3 3 2 2 1 1 1 2 7 2 2 2 3 2 1 2 0 4 4
26 24 23 22 20 20 18 16 16 16 16 15 5 2 2 3 1 1 2 3 3 3 3 4 3 3 4 3 2 2 2 1 2 2 2 2 2 1 2 1 2 1 1 1 2 3 3
18 20 25 25 24 22 19 17 16 15 14 6 2 2 1 5 1 1 2 4 2 2 2 3 2 5 4 4 3 3 3 3 4 2 2 2 3 5 2 2 1 2 2 2 3 1 1
18 19 18 24 26 26 23 19 15 12 10 5 2 2 1 2 3 3 2 3 4 5 4 4 4 5 2 4 3 5 3 1 6 4 2 3 2 6 1 3 3 3 2 1 1 1 4
21 19 18 21 23 29 25 22 16 12 9 4 2 2 2 2 1 2 3 4 3 3 3 4 2 2 3 4 6 3 3 3 5 3 3 3 3 7 6 8 2 6 4 5 4 3 1
21 21 21 21 18 24 29 24 19 14 11 4 3 4 2 3 5 6 3 3 3 5 4 6 3 9 6 3 3 5 4 2 3 4 3 3 5 4 12 16 11 12 13 11 12 10 6
22 22 23 23 23 20 22 29 25 18 15 8 3 3 2 2 2 7 6 6 8 4 8 5 6 4 10 6 7 4 4 4 4 4 4 3 3 2 7 3 4 7 11 9 12 13 13
24 24 23 24 25 24 22 22 33 25 24 9 5 3 2 4 4 6 6 7 8 6 7 4 9 5 8 15 11 7 5 2 2 4 7 4 3 2 5 2 10 7 2 7 4 6 6
25 26 26 26 25 24 26 26 27 37 35 25 7 4 4 8 9 9 6 7 9 11 3 1 6 5 1 4 2 2 2 4 5 6 3 3 2 2 4 6 4 2 2 1 4 4 10
25 28 28 27 27 29 31 33 30 40 41 32 25 7 4 10 10 13 11 6 4 5 5 5 7 2 6 3 1 4 2 2 1 2 5 4 4 3 3 3 6 1 2 2 1 5 7
23 25 27 29 29 32 37 44 39 39 47 43 32 32 5 5 11 11 9 10 9 6 4 4 1 3 2 2 2 3 3 2 2 2 3 3 2 4 2 3 3 4 2 1 1 4 8
25 27 30 32 34 34 41 44 42 41 50 46 20 41 12 6 8 7 9 8 6 4 3 4 5 3 2 4 4 5 4 1 3 5 5 4 4 10 8 3 5 3 3 2 3 3 5
21 23 27 31 33 35 44 47 33 39 49 51 31 36 33 5 10 8 6 5 4 4 6 6 5 2 2 6 5 4 4 3 3 2 5 8 8 4 4 5 7 4 1 4 2 1 2
24 24 27 31 32 34 36 37 23 38 50 55 21 38 39 5 3 18 18 15 9 8 5 7 1 5 6 3 4 3 3 3 3 4 2 5 5 6 8 4 2 3 3 1 1 3 3
Wind_Direction
42 36 32 29 23 23 20 18 19 13 12 358 342 325 297 287 286 289 298 314 331 348 348 351 358 353 359 37 1 322 344 351 346 5 354 355 308 303 269 310 282 245 260 255 256 261 254
33 27 33 24 20 19 13 10 10 11 8 3 345 333 317 298 288 284 282 289 309 322 337 341 351 358 342 39 312 326 344 359 12 357 350 317 25 352 286 38 271 330 290 276 270 255 254
26 22 24 18 19 14 11 6 7 5 4 360 352 340 326 324 301 288 278 275 292 305 319 324 343 1 289 19 319 329 346 351 11 346 320 318 263 242 172 276 234 278 277 274 252 243 235
23 15 18 15 14 13 7 4 6 3 359 358 354 346 339 330 314 294 280 269 284 304 306 298 330 349 294 294 323 320 329 298 20 21 323 317 262 276 260 252 259 258 263 292 30 241 225
14 11 13 11 8 12 5 4 5 4 2 358 353 357 347 340 326 305 280 261 281 300 296 284 274 327 357 318 314 305 279 295 285 301 310 260 264 289 222 242 254 204 290 272 305 209 235
8 7 4 4 8 6 5 2 3 0 2 358 358 359 350 348 339 321 257 259 269 299 284 185 146 225 197 322 304 290 260 230 272 293 246 253 275 311 232 232 281 188 296 288 271 311 228
358 359 1 4 3 5 3 2 3 359 360 0 359 354 352 353 8 21 51 228 235 200 236 336 43 262 295 316 299 221 246 243 251 246 332 332 283 291 258 244 320 275 296 306 286 320 210
352 356 355 1 358 360 3 3 3 1 357 359 358 352 352 357 15 24 45 74 73 58 307 229 255 267 270 320 299 222 186 281 268 305 296 241 271 332 289 258 254 272 298 295 299 19 240
350 350 349 354 354 357 2 1 3 2 357 358 357 356 351 347 359 42 67 103 113 102 278 270 255 271 304 214 290 285 232 305 280 277 307 267 304 324 225 251 247 245 236 276 29 307 213
341 348 347 349 350 351 358 357 0 1 358 357 354 359 360 360 39 38 61 91 88 166 289 227 243 125 207 272 256 232 234 282 257 304 328 276 313 325 300 280 274 272 214 257 227 273 343
335 336 339 345 348 349 352 353 357 358 357 358 353 350 2 20 55 42 127 83 75 245 340 125 264 326 288 253 324 158 243 218 282 301 288 309 297 335 335 1 351 346 337 297 263 238 292
321 328 333 334 339 345 346 348 352 356 355 357 354 338 356 346 41 122 137 113 324 241 281 11 306 327 321 204 250 314 306 239 288 295 229 280 323 265 301 306 194 281 292 254 229 266 253
340 336 331 330 333 335 341 342 346 353 352 355 351 335 352 358 356 144 135 215 337 355 103 350 334 344 327 294 311 351 342 2 355 342 355 318 178 201 255 264 168 327 321 309 293 333 357
327 332 335 331 331 330 332 336 340 345 349 352 346 328 338 31 118 74 333 228 51 203 268 39 317 296 281 339 243 314 298 304 152 318 303 342 312 337 12 340 329 340 269 288 305 328 326
310 315 320 324 328 330 329 329 333 339 343 346 343 318 278 247 182 90 282 255 211 201 170 278 280 288 269 263 299 320 235 303 308 261 323 321 273 301 251 11 327 25 317 13 286 198 265
301 304 307 310 317 321 321 325 326 331 339 339 338 330 247 216 151 101 247 265 237 218 148 176 240 210 293 312 308 316 297 138 240 221 266 11 294 170 348 289 150 327 12 285 251 323 330
291 295 300 302 306 310 314 318 320 323 334 340 340 298 173 156 133 171 218 242 240 220 189 183 221 236 237 282 250 265 286 229 205 156 226 265 251 293 248 131 1 308 262 344 298 302 317
296 296 288 294 300 301 304 308 312 314 333 341 359 279 166 148 237 280 230 195 159 183 164 267 269 255 228 196 246 249 254 239 166 189 254 169 293 277 298 133 225 259 290 282 295 359 308
336 315 307 288 289 293 295 298 301 298 320 328 283 263 169 153 241 212 259 253 216 163 199 184 244 219 252 248 256 221 225 187 169 200 237 172 235 299 244 157 175 241 210 218 196 279 240
338 328 327 301 295 282 287 287 286 278 280 305 249 263 171 194 262 256 221 231 231 214 184 189 226 161 169 249 243 284 251 205 189 210 146 183 259 252 272 309 345 272 222 222 239 258 268
335 334 327 318 305 284 275 279 271 266 252 238 209 238 283 202 219 202 197 192 196 210 222 193 196 223 193 238 225 235 237 248 198 193 154 226 260 224 264 274 276 269 261 242 229 240 246
328 332 330 326 320 299 283 268 266 245 233 231 232 200 185 263 182 179 192 212 212 209 169 208 221 182 204 228 227 269 205 221 255 168 205 189 262 271 285 253 229 266 262 237 236 248 259
329 324 323 325 319 315 296 276 257 240 216 226 239 246 227 174 180 185 208 198 211 187 216 187 200 173 206 236 250 265 246 277 288 213 203 207 249 290 272 333 302 271 251 186 185 209 222
326 323 316 319 323 316 309 286 265 246 221 213 231 203 203 237 206 206 195 195 199 212 230 173 179 184 164 112 127 164 246 239 226 234 248 198 211 236 284 316 242 68 140 209 245 266 220
323 322 318 312 312 316 312 300 271 246 234 213 218 211 224 249 224 223 211 199 193 207 231 218 195 180 150 111 250 299 229 242 173 45 225 228 224 258 265 269 315 248 210 174 237 63 357
328 330 328 321 312 309 311 302 281 245 230 216 214 218 233 262 233 228 206 198 212 200 175 209 58 151 125 144 167 220 259 304 223 165 82 164 240 231 203 252 280 38 32 304 334 90 9
320 326 325 322 319 315 315 312 282 239 224 211 217 211 215 233 233 185 216 211 171 173 155 132 161 177 233 167 188 208 235 191 241 204 177 173 188 222 222 267 281 319 297 154 220 76 354
330 327 331 329 326 325 326 322 277 234 219 205 214 204 200 231 234 198 200 159 135 195 191 138 129 175 154 190 192 197 210 206 267 178 187 191 178 185 178 198 243 5 291 350 37 337 319
318 321 330 331 329 334 336 357 309 228 213 204 212 203 200 215 272 226 229 224 215 188 165 183 283 154 171 158 198 147 186 185 227 251 187 233 226 174 200 212 98 39 71 143 318 322 332